COSMOS 1045

导读

COSMOS 1045是苏联(现归属独联体CIS)于1978年10月26日发射的军用卫星,隶属于苏联“宇宙”(COSMOS)卫星系列,该系列以多类型军事任务为核心部署。作为冷战时期空间侦察体系的组成部分,它主要承担军事侦察、信号情报收集等战略任务,发射后进入近地轨道运行,相关任务细节因军事属性保持保密,是苏联太空军事化应用的典型例证,体现了当时苏联在航天侦察领域的技术水平。

基本信息
目录编号:
11084
目录名称:
COSMOS 1045
国际标识:
1978-100A
轨道中心:
EARTH
卫星名称:
COSMOS 1045
卫星全名:
--
卫星状态:
在轨 (已飞行17490 天)
发射日期:
1978-10-26 UTC
国别 :
俄罗斯(独联体) (CIS)
星等 :
--
该卫星已列入 空间交会检测服务 Space Conjunction Data Service (SCDS) ,当前飞行风险评估等级: 无高风险
轨道信息
数据来源 国际轨道数据
星历时间: 2026-09-14T13:00:51+0800
3小时前
查看轨道信息
半长轴: 8073.489km
偏心率: 0.0013043
轨道倾角: 82.555°
近地点辐角 146.847°
升交点赤经 351.690°
平近点角 237.996°
近地点: 1684.821km
远地点: 1705.883km
周期: 120.324分钟
每日圈数: 11.967707
详细信息
使用方式:
暂无
2D轨道图
3D轨道图
轨道高度分析图
轨道倾角分析图
轨道综合分析图
查看轨道综合分析图
与全量物体交会距离演化趋势 订阅飞行安全评估服务
与全量物体交会风险概率演化趋势 订阅飞行安全评估服务